GFSNIL_sfc_temp_000.txt.gz
Temp
83 81 81 80 79 78 78 79 82 80 80 78 78 78 77 76 75 75 73 73 71 70
81 81 81 81 81 79 81 81 79 80 78 78 78 77 76 75 75 74 74 73 72 71
81 81 81 81 79 80 79 80 79 79 78 78 77 76 75 75 74 73 73 72 71 71
82 82 81 80 80 80 80 80 79 78 77 77 76 76 75 74 74 72 73 72 71 71
81 82 82 80 80 81 79 79 78 78 77 76 76 75 74 74 74 73 71 72 71 70
80 79 79 79 80 80 79 78 78 78 76 75 76 75 75 74 73 73 73 72 71 70
78 79 79 79 80 80 78 78 78 76 76 75 76 76 75 74 72 71 73 72 71 70
80 80 79 78 79 79 78 78 78 77 76 77 78 80 76 74 73 71 71 71 70 70
80 79 78 79 79 78 78 79 77 76 76 76 79 69 70 70 72 72 70 69 69 69
80 79 79 79 78 78 78 77 76 76 76 75 75 63 66 68 69 69 69 68 67 66
80 79 78 78 77 77 77 76 74 74 75 74 75 62 62 64 68 69 69 69 68 66
80 78 78 77 76 76 75 74 74 75 74 72 72 61 58 60 66 67 68 70 68 68
80 79 78 77 76 75 77 74 76 75 75 72 73 59 58 62 60 61 64 68 68 62
81 79 80 78 74 72 72 71 71 72 73 74 71 69 60 58 62 64 65 66 68 69

GFSNIL_sfc_temp_003.txt.gz
Temp
72 71 70 70 68 69 67 69 70 70 71 71 71 71 70 69 68 68 67 67 65 64
73 71 70 70 70 68 69 73 71 72 71 70 70 70 69 68 67 68 67 66 66 64
72 72 71 70 69 70 70 71 71 71 71 70 70 70 69 68 69 67 66 66 65 64
71 71 71 70 70 70 70 70 70 70 70 69 69 69 68 68 68 67 66 66 65 65
72 73 70 70 70 71 70 70 70 70 69 69 69 69 68 67 68 67 65 64 63 64
72 73 70 70 70 70 70 70 70 70 69 69 69 68 68 67 67 66 66 64 64 64
71 71 70 70 70 70 70 69 69 69 69 68 69 69 68 68 66 66 66 66 65 64
70 70 70 70 70 70 70 70 70 69 68 69 70 73 68 68 66 65 64 64 64 64
73 71 70 70 69 69 69 69 69 68 68 68 72 66 70 67 63 64 63 62 63 63
73 71 70 71 69 68 68 68 68 67 67 67 67 65 65 66 62 62 61 62 61 62
71 71 71 70 68 69 68 68 67 66 67 66 67 65 62 64 60 60 61 61 62 61
72 71 69 68 68 68 67 67 66 67 66 65 64 61 60 60 60 60 59 61 62 62
73 70 69 69 69 69 68 67 65 64 65 65 61 60 58 59 59 56 58 60 61 59
72 72 71 70 68 66 66 61 62 63 64 65 61 60 57 57 58 59 58 57 59 56

GFSNIL_sfc_temp_006.txt.gz
Temp
68 68 67 67 66 65 65 66 67 67 68 69 68 68 67 65 66 65 65 64 63 62
68 67 67 67 67 66 66 68 68 69 68 68 68 68 67 65 67 65 64 64 64 62
70 68 68 67 67 66 67 67 68 68 68 68 68 67 66 65 65 64 64 63 63 62
69 69 68 67 67 67 67 67 67 67 67 67 67 67 66 65 65 65 64 63 63 63
70 68 67 67 68 67 67 67 67 67 66 66 67 66 65 65 66 65 63 63 61 62
68 68 67 67 67 67 67 67 67 66 66 66 66 66 66 65 65 64 64 63 61 62
69 69 67 67 68 67 67 66 66 66 67 66 66 66 66 65 64 63 64 64 63 62
71 70 68 67 69 67 66 66 66 66 66 66 66 70 66 65 64 63 63 63 63 62
70 68 69 71 68 66 66 66 66 66 66 66 69 67 65 66 63 63 61 61 61 61
68 67 71 72 67 67 66 65 66 66 65 65 65 64 63 66 62 61 60 59 59 60
69 69 72 69 67 67 65 66 67 65 65 64 65 62 61 63 61 59 59 59 59 59
71 71 70 67 66 67 65 64 64 64 63 62 63 61 59 60 59 58 58 58 59 59
72 71 69 68 66 69 65 65 64 63 63 61 61 60 57 58 58 56 58 57 58 58
71 71 71 69 66 65 64 61 61 62 63 63 61 60 56 55 57 57 56 55 58 54

GFSNIL_sfc_temp_009.txt.gz
Temp
65 64 64 64 63 63 63 65 65 66 66 66 67 66 65 64 64 64 63 63 61 61
66 65 65 65 65 64 64 67 66 66 66 66 66 66 65 64 64 64 63 62 62 61
66 67 66 65 65 65 65 66 66 66 66 66 66 65 64 63 64 63 62 62 62 61
67 66 66 65 65 65 65 65 65 65 65 65 65 65 64 63 64 63 62 62 62 62
68 67 66 65 66 65 65 65 66 65 65 65 65 64 64 63 64 63 62 62 61 61
66 65 66 67 67 66 65 65 65 65 64 64 65 64 64 63 63 63 63 63 61 61
67 67 69 69 68 67 66 66 67 65 65 65 65 65 64 64 63 63 63 62 61 61
68 67 68 69 69 68 68 68 68 65 65 65 65 68 64 64 63 63 62 62 61 61
66 66 68 68 69 69 69 68 66 64 65 64 68 66 65 66 63 62 61 60 60 60
67 67 67 69 69 69 69 67 66 64 64 64 65 62 63 65 61 60 59 58 57 58
66 68 68 70 70 69 68 66 65 63 64 63 64 59 61 62 61 59 58 58 58 57
68 67 68 67 69 71 65 64 64 63 62 63 63 61 59 60 59 58 58 57 58 57
67 67 65 67 68 66 65 65 63 63 63 61 62 59 57 57 57 56 55 57 58 58
65 65 65 65 64 65 63 62 61 62 62 62 61 60 56 55 56 56 56 55 56 54

GFSNIL_sfc_temp_015.txt.gz
Temp
81 83 82 80 82 82 82 82 80 79 79 78 78 78 77 79 79 77 77 75 75 78
80 80 81 79 77 80 79 82 79 79 78 78 77 77 77 79 77 77 76 76 75 76
81 76 79 79 76 78 79 79 78 78 78 77 77 77 76 77 77 75 78 77 75 75
79 78 76 78 77 72 77 76 77 77 77 78 77 77 75 76 77 75 75 75 75 75
78 74 77 71 76 78 74 74 76 76 75 76 76 77 76 76 77 75 74 76 75 75
77 74 74 76 74 75 74 74 75 73 72 73 75 76 77 75 76 76 75 76 76 76
77 77 75 70 69 67 68 70 71 70 71 73 75 76 77 77 75 75 77 76 76 76
78 77 74 71 68 67 66 66 67 69 71 72 71 78 76 76 76 75 76 77 77 77
77 75 72 71 71 69 66 67 67 68 70 70 73 69 66 71 77 76 75 75 76 76
76 73 73 73 70 69 65 66 68 69 71 71 74 64 63 65 74 74 74 75 74 74
75 74 73 73 70 69 69 65 68 70 71 71 75 62 61 63 70 72 69 72 74 71
75 74 72 71 69 68 68 69 70 72 71 72 74 59 59 63 70 71 70 73 71 70
75 74 72 69 68 69 70 70 70 71 71 69 72 61 57 64 68 70 68 72 69 61
74 71 69 69 69 71 70 68 66 68 69 72 69 68 57 55 68 71 74 73 72 71

GFSNIL_sfc_temp_021.txt.gz
Temp
88 90 90 90 93 92 94 94 89 86 86 86 86 85 84 85 84 84 83 81 82 84
87 88 90 89 89 93 92 95 90 87 85 85 85 84 83 84 83 82 82 82 82 82
89 88 89 90 89 89 91 90 89 86 86 85 84 83 82 83 84 81 82 84 82 81
89 89 89 90 90 88 89 88 88 85 85 83 80 80 80 81 81 81 80 81 80 80
90 89 89 88 90 88 86 87 86 85 84 80 78 75 75 79 80 81 80 80 79 79
89 89 88 88 89 88 86 82 84 83 80 80 76 75 78 78 79 80 81 80 78 80
89 89 90 89 88 87 85 83 83 81 81 78 77 78 80 79 79 79 81 78 81 81
90 90 89 88 87 87 83 83 82 81 80 80 78 82 79 79 79 79 78 80 81 81
90 89 88 87 86 84 83 81 80 80 79 77 81 71 69 77 80 80 77 78 76 78
90 88 86 86 84 82 81 80 79 78 78 76 78 65 66 69 80 80 78 78 78 79
90 87 85 82 81 79 79 79 78 76 77 77 78 63 63 66 77 78 78 80 79 77
89 87 84 81 80 79 78 78 77 76 77 76 78 62 61 66 78 78 77 79 79 77
89 87 83 82 80 79 78 78 79 76 78 73 79 62 60 64 80 78 80 77 76 65
88 85 84 79 80 78 74 74 74 75 77 76 78 75 58 58 76 79 80 75 71 69

GFSNIL_sfc_temp_024.txt.gz
Temp
84 86 86 85 87 86 86 86 81 82 81 81 80 80 78 78 77 76 76 76 76 75
83 84 85 84 84 86 84 87 82 82 80 80 80 79 77 77 76 76 76 76 77 75
85 84 85 85 84 83 85 86 82 81 81 80 79 78 75 76 77 75 77 77 76 75
85 85 84 86 85 84 84 83 81 80 80 79 79 78 76 75 77 75 75 75 75 75
85 85 84 84 86 85 83 83 82 80 79 79 79 77 75 75 77 75 74 75 74 74
85 84 84 84 84 85 84 82 81 80 79 78 78 76 76 76 76 76 75 75 74 73
84 84 85 84 83 84 84 82 80 80 79 79 78 77 76 76 76 75 76 76 76 75
86 85 84 84 84 84 84 82 80 79 79 79 78 79 75 76 76 75 75 76 76 76
86 85 84 84 84 83 83 82 80 79 78 77 79 71 70 75 76 75 74 73 74 75
86 84 84 84 83 82 82 80 79 78 78 77 77 68 68 70 76 75 75 74 73 74
86 85 84 83 82 81 82 80 77 77 77 76 76 64 64 67 73 72 72 74 74 73
87 84 83 82 81 81 80 78 77 76 75 74 74 62 62 65 70 71 73 74 74 74
87 85 83 82 81 81 79 77 79 76 75 70 73 61 60 63 72 72 73 73 72 66
86 84 84 82 80 79 77 76 75 74 72 71 71 70 58 58 72 73 73 71 70 71

GFSNIL_sfc_temp_027.txt.gz
Temp
81 78 78 77 77 78 78 78 76 76 75 74 73 73 71 70 70 69 68 69 68 68
80 81 78 77 77 77 78 80 77 77 76 75 73 72 71 70 69 70 69 69 70 68
81 80 80 77 77 77 78 77 78 76 76 74 74 72 70 69 70 69 69 69 68 70
81 81 80 79 77 78 78 76 77 77 76 75 73 73 71 69 69 69 69 69 68 68
81 81 80 81 79 79 79 75 77 77 75 75 75 73 72 70 72 69 68 68 67 68
81 80 80 80 81 80 80 77 77 77 76 75 74 73 72 72 69 69 69 68 67 69
81 81 81 81 81 78 80 79 76 77 76 75 75 73 73 71 68 68 69 69 69 69
82 82 81 81 80 81 78 79 77 75 75 74 74 74 72 72 69 68 68 69 70 71
82 81 80 80 80 79 80 78 76 74 73 73 76 70 69 72 70 68 68 67 68 72
82 81 80 80 79 78 78 77 76 74 73 72 74 67 67 69 69 68 67 67 71 69
82 81 80 80 79 79 79 79 76 74 74 74 73 65 65 68 69 67 68 70 70 69
82 81 80 79 79 80 78 74 74 75 75 74 69 62 62 65 67 65 68 69 69 68
83 82 80 80 79 79 77 76 75 73 73 68 70 61 61 64 68 66 67 68 67 65
84 81 81 80 79 77 75 73 74 72 71 71 71 65 58 59 69 69 68 67 65 65

GFSNIL_sfc_temp_030.txt.gz
Temp
78 79 77 74 74 77 78 76 74 74 73 72 71 70 69 68 67 67 66 67 65 65
79 79 77 74 75 75 77 76 74 74 74 73 71 70 68 67 67 67 66 66 65 65
79 80 78 75 75 76 76 76 74 74 74 73 71 69 68 67 67 67 66 66 65 65
79 79 80 76 77 77 77 76 74 75 74 74 72 70 69 67 67 66 66 67 66 66
80 79 78 79 78 77 77 77 77 75 74 74 73 71 70 69 70 67 66 66 65 66
79 79 78 79 80 77 78 75 75 75 74 74 73 72 72 71 68 68 67 67 66 66
79 79 79 79 79 78 78 75 74 74 74 74 74 73 72 71 69 67 67 67 68 67
80 80 80 79 78 79 78 78 74 74 73 73 73 74 72 71 70 68 67 66 67 67
80 79 79 78 78 77 76 77 74 72 73 71 74 69 68 71 70 69 69 66 66 67
80 78 78 78 77 76 76 74 73 72 72 71 73 66 66 69 71 69 69 68 66 67
79 78 78 77 77 76 77 76 73 72 72 72 73 64 64 67 70 69 68 67 67 67
80 78 77 77 76 77 76 76 74 73 73 72 71 63 62 65 67 68 68 69 68 68
81 79 78 78 77 78 78 76 75 73 73 71 71 60 59 65 69 68 68 65 66 64
81 80 80 79 79 78 77 74 74 72 72 70 68 62 58 59 70 70 66 65 65 66

GFSNIL_sfc_temp_033.txt.gz
Temp
78 78 77 74 73 73 73 75 74 73 72 70 69 69 67 66 65 65 65 65 64 63
78 77 76 72 74 74 74 76 73 74 72 70 69 69 67 66 65 65 64 64 64 64
78 78 77 74 73 72 73 75 73 73 72 70 69 69 67 65 65 65 64 64 63 63
78 78 77 75 74 74 74 73 72 73 72 71 70 69 68 66 65 65 65 65 64 64
79 78 77 77 75 76 75 74 74 73 72 72 71 70 69 68 69 66 64 65 64 65
79 77 77 78 77 75 76 75 74 74 73 72 71 70 70 70 68 67 67 65 65 65
79 78 77 79 78 77 77 76 75 74 74 73 73 72 71 70 69 68 68 67 66 65
79 80 78 78 78 78 76 77 75 73 73 73 73 73 71 71 70 69 68 67 67 67
79 79 78 77 77 76 76 76 73 72 72 71 73 69 68 72 71 69 69 66 65 66
79 78 78 78 76 75 75 76 73 73 72 71 73 65 66 69 72 69 67 67 67 67
78 78 78 77 76 76 76 74 75 71 72 72 72 64 63 67 70 68 68 69 68 68
79 78 77 76 76 76 77 75 74 73 71 72 71 61 61 64 69 68 68 69 69 68
79 78 77 77 77 77 78 79 77 74 73 70 71 59 60 64 70 67 67 68 67 64
81 79 79 78 78 77 77 78 76 74 73 71 71 62 57 60 68 68 67 67 63 63

GFSNIL_sfc_temp_036.txt.gz
Temp
76 77 76 75 75 75 74 75 75 75 75 73 72 72 70 70 69 69 69 68 68 69
76 76 76 74 75 75 75 76 75 75 74 72 72 71 70 70 69 69 68 68 68 69
76 76 76 75 74 74 74 75 74 74 74 72 72 71 70 69 69 69 68 69 68 68
77 77 77 76 75 75 74 74 74 74 74 73 71 71 70 69 69 68 68 68 67 67
77 77 76 75 76 75 74 74 74 74 73 73 72 71 71 70 71 69 68 68 67 68
77 76 75 76 77 75 74 73 74 73 73 73 72 71 72 71 71 70 70 69 68 69
77 76 77 77 77 75 75 74 73 73 74 73 73 72 72 72 71 71 71 70 70 69
77 77 77 76 76 76 76 75 74 74 74 74 74 75 72 72 71 71 71 70 70 70
77 77 76 75 76 75 75 75 74 73 74 73 75 70 68 72 72 71 71 69 70 71
77 76 76 76 75 75 74 75 75 74 74 73 74 66 66 68 73 72 70 70 69 69
76 76 76 76 75 75 76 75 75 73 74 74 74 64 64 67 73 71 70 70 69 70
77 76 76 75 75 76 76 75 75 76 73 73 73 62 62 65 71 69 69 69 70 69
77 76 76 76 76 77 77 76 76 75 74 71 74 61 60 64 73 69 68 69 69 64
78 77 77 77 77 77 77 76 75 75 75 73 72 69 58 59 71 69 68 68 67 68

GFSNIL_sfc_temp_042.txt.gz
Temp
86 89 90 90 93 93 95 95 92 90 90 89 90 89 88 89 88 86 85 84 85 90
86 86 90 89 89 93 92 96 93 91 89 89 89 88 87 89 86 87 85 85 84 87
88 87 88 90 88 89 92 91 93 90 90 89 89 88 86 88 87 84 87 88 84 84
89 89 88 89 89 89 89 90 89 90 89 89 89 88 86 87 88 84 83 85 84 82
89 88 89 88 90 90 89 89 89 89 88 89 89 88 86 86 88 85 83 84 83 82
88 88 88 88 88 90 88 89 89 89 88 88 89 88 87 87 87 86 85 85 83 83
88 88 89 89 88 89 89 88 88 88 88 89 89 89 89 88 87 87 87 86 86 85
88 89 88 88 88 89 88 89 88 88 89 89 90 92 88 89 88 86 86 87 86 86
89 88 87 87 87 87 87 87 87 88 88 88 92 80 74 84 89 88 86 85 85 86
89 87 87 87 86 86 86 87 86 87 88 87 88 71 70 72 89 88 87 86 86 86
88 87 87 86 86 85 87 86 86 86 87 87 89 68 67 70 85 88 88 87 86 85
89 87 86 85 85 86 86 86 86 87 86 86 87 65 63 68 86 86 86 87 87 85
89 88 86 86 85 86 86 86 88 86 87 80 86 67 60 67 87 85 87 86 85 70
90 88 87 87 86 86 86 87 84 82 84 85 84 82 59 59 79 84 88 88 89 88

GFSNIL_sfc_temp_045.txt.gz
Temp
87 91 90 91 95 95 96 97 96 91 91 90 90 90 90 90 89 88 86 85 84 91
87 87 90 88 90 94 93 98 96 94 91 91 90 90 89 90 88 89 86 86 85 86
88 88 89 90 89 90 92 94 95 93 91 90 90 90 88 89 89 87 88 89 86 85
89 90 89 90 91 90 91 92 91 92 91 90 89 89 88 88 90 86 85 87 87 84
90 90 90 89 91 91 90 90 91 90 90 90 90 89 88 87 89 88 85 85 85 85
90 90 89 89 90 91 89 90 91 90 89 89 89 89 89 88 88 89 88 86 85 85
89 89 91 90 90 90 90 89 89 89 89 89 90 90 90 89 88 88 89 88 87 86
91 90 90 89 90 90 90 90 89 89 89 90 91 93 89 89 88 87 87 89 88 88
91 90 89 89 89 89 89 89 89 88 89 89 93 81 75 84 89 88 87 86 87 88
91 89 88 89 88 87 87 89 88 88 89 88 89 74 72 73 90 89 88 87 87 88
91 89 89 88 87 87 88 87 87 88 88 88 90 71 67 71 87 88 88 87 86 86
92 89 88 87 87 88 88 88 87 88 87 86 87 68 65 69 87 87 85 86 87 86
92 90 88 88 87 88 88 88 90 89 88 82 87 67 62 70 89 85 87 85 83 71
92 89 89 88 88 87 87 88 86 88 88 88 85 83 60 61 81 84 85 87 88 89

GFSNIL_sfc_temp_048.txt.gz
Temp
82 86 85 84 88 88 89 89 86 85 85 85 84 84 84 84 83 82 81 81 79 79
82 83 85 83 84 88 86 91 89 85 85 85 85 84 83 84 82 83 81 80 80 79
84 83 84 85 83 84 86 87 89 85 86 85 84 84 83 83 83 81 82 82 79 78
85 84 84 85 85 85 85 85 87 86 85 84 84 84 83 82 83 82 80 81 80 78
85 85 85 84 86 86 85 85 86 86 85 84 84 84 83 83 84 83 80 80 80 80
85 85 85 85 85 86 85 85 86 86 85 84 84 84 84 83 83 83 82 81 80 80
85 85 86 86 85 85 86 84 85 85 85 85 85 85 85 84 83 83 84 83 82 81
86 87 86 85 86 86 85 86 85 85 85 85 86 88 84 84 84 83 82 83 83 83
87 86 86 85 85 85 85 85 85 84 85 85 88 79 74 81 85 84 82 82 83 83
87 86 85 85 85 84 84 85 84 84 85 84 85 73 71 73 85 84 83 82 82 83
88 86 85 85 84 84 85 84 84 84 84 84 85 72 69 71 83 83 83 83 83 82
89 86 85 84 84 84 84 84 84 85 84 83 84 69 67 69 82 83 82 83 83 83
89 87 86 85 84 85 85 85 87 85 85 80 84 70 64 68 85 82 83 83 82 71
88 87 86 85 85 85 84 85 83 84 85 85 83 83 62 61 83 84 83 83 83 85